Weather History for Sallisaw, OK

Change the Weather History Date:

Monday, December 17, 2012

  Actual Average Record
Temperature  
Mean Temperature 43 °F -  
Max Temperature 51 °F 51 °F 136 °F (2004)
Min Temperature 35 °F 28 °F 7 °F (1979)
Degree Days  
Heating Degree Days 22    
Moisture  
Dew Point 36 °F    
Average Humidity 78    
Maximum Humidity 93    
Minimum Humidity 54    
Precipitation  
Precipitation 0.00 in - - ()
Sea Level Pressure  
Sea Level Pressure 29.80 in    
Wind  
Wind Speed 6 mph (WNW)    
Max Wind Speed 16 mph    
Max Gust Speed 21 mph    
Visibility 8 miles    
Events      
Averages and records for this station are not official NWS values.
T = Trace of Precipitation, MM = Missing Value Source: NWS Daily Summary

Daily Weather History Graph

Daily Weather History Graph

Search for Another Location

Airport:

Trip Planner

Search our weather history database for the weather conditions in past years. The results will help you decide how hot, cold, wet, or windy it might be!

Date:

Astronomy

Dec. 17, 2012 Rise Set
Actual Time 7:22 AM CST 5:08 PM CST
Civil Twilight 6:54 AM CST 5:37 PM CST
Nautical Twilight 6:22 AM CST 6:08 PM CST
Astronomical Twilight 5:51 AM CST 6:40 PM CST
Moon 10:40 AM CST (12/17) 10:21 PM CST (12/17)
Length of Visible Light 10h 42m
Length of Day
9h 46m
Waxing Crescent, 25% of the Moon is Illuminated
Dec 17
Waxing Crescent
Dec 19
First Quarter
Dec 28
Full
Jan 4
Last Quarter
Jan 11
New

Hourly Weather History & Observations

Time (CST) Temp. Windchill Dew Point Humidity Pressure Visibility Wind Dir Wind Speed Gust Speed Precip Events Conditions
12:15 AM 48.2 °F - 37.4 °F 66% 29.74 in 10.0 mi West 3.5 mph - N/A   Clear
12:35 AM 48.2 °F - 37.4 °F 66% 29.73 in 10.0 mi West 3.5 mph - N/A   Clear
12:55 AM 46.4 °F 45.2 °F 37.4 °F 71% 29.72 in 10.0 mi West 3.5 mph - N/A   Clear
1:15 AM 46.4 °F 44.3 °F 37.4 °F 71% 29.72 in 10.0 mi West 4.6 mph - N/A   Clear
1:35 AM 44.6 °F 40.7 °F 37.4 °F 76% 29.73 in 10.0 mi WSW 6.9 mph - N/A   Clear
1:55 AM 44.6 °F 41.4 °F 39.2 °F 81% 29.72 in 10.0 mi West 5.8 mph - N/A   Clear
2:15 AM 42.8 °F 39.3 °F 37.4 °F 81% 29.72 in 10.0 mi West 5.8 mph - N/A   Clear
2:35 AM 42.8 °F 39.3 °F 37.4 °F 81% 29.72 in 10.0 mi WNW 5.8 mph - N/A   Clear
2:55 AM 42.8 °F - 37.4 °F 81% 29.72 in 10.0 mi Calm Calm - N/A   Clear
3:15 AM 41.0 °F 37.1 °F 37.4 °F 87% 29.72 in 10.0 mi West 5.8 mph - N/A   Clear
3:35 AM 42.8 °F 39.3 °F 37.4 °F 81% 29.72 in 10.0 mi West 5.8 mph - N/A   Clear
3:55 AM 41.0 °F 37.1 °F 37.4 °F 87% 29.72 in 7.0 mi West 5.8 mph - N/A   Clear
4:15 AM 41.0 °F 35.8 °F 37.4 °F 87% 29.73 in 7.0 mi West 8.1 mph - N/A   Clear
4:35 AM 41.0 °F 35.2 °F 37.4 °F 87% 29.73 in 7.0 mi WNW 9.2 mph - N/A   Clear
5:15 AM 42.8 °F 37.5 °F 41.0 °F 93% 29.75 in 4.0 mi WNW 9.2 mph - N/A   Overcast
5:35 AM 42.8 °F 36.2 °F 41.0 °F 93% 29.76 in 4.0 mi NW 12.7 mph 19.6 mph N/A   Overcast
5:55 AM 42.8 °F 35.1 °F 41.0 °F 93% 29.77 in 4.0 mi WNW 16.1 mph 20.7 mph N/A   Overcast
6:15 AM 42.8 °F 36.6 °F 41.0 °F 93% 29.77 in 4.0 mi WNW 11.5 mph - N/A   Overcast
6:35 AM 42.8 °F 37.5 °F 41.0 °F 93% 29.78 in 3.0 mi NW 9.2 mph - N/A   Overcast
6:55 AM 42.8 °F 35.8 °F 39.2 °F 87% 29.78 in 4.0 mi NW 13.8 mph - N/A   Overcast
7:15 AM 42.8 °F 39.3 °F 39.2 °F 87% 29.79 in 4.0 mi NW 5.8 mph - N/A   Overcast
7:35 AM 42.8 °F 37.5 °F 37.4 °F 81% 29.81 in 3.0 mi NW 9.2 mph 18.4 mph N/A   Haze
7:55 AM 42.8 °F 38.6 °F 37.4 °F 81% 29.81 in 4.0 mi West 6.9 mph - N/A   Haze
8:15 AM 42.8 °F 37.5 °F 37.4 °F 81% 29.82 in 4.0 mi WNW 9.2 mph - N/A   Overcast
8:35 AM 42.8 °F 37.5 °F 37.4 °F 81% 29.82 in 4.0 mi West 9.2 mph - N/A   Haze
8:55 AM 42.8 °F 37.5 °F 37.4 °F 81% 29.82 in 4.0 mi West 9.2 mph - N/A   Haze
9:15 AM 42.8 °F 36.6 °F 37.4 °F 81% 29.83 in 4.0 mi WNW 11.5 mph - N/A   Haze
9:35 AM 42.8 °F 38.0 °F 37.4 °F 81% 29.84 in 4.0 mi West 8.1 mph - N/A   Haze
9:55 AM 42.8 °F 37.5 °F 37.4 °F 81% 29.86 in 4.0 mi West 9.2 mph - N/A   Haze
10:15 AM 42.8 °F 38.0 °F 35.6 °F 76% 29.86 in 5.0 mi WNW 8.1 mph - N/A   Haze
10:35 AM 42.8 °F 37.5 °F 35.6 °F 76% 29.87 in 4.0 mi West 9.2 mph - N/A   Haze
10:55 AM 42.8 °F 37.0 °F 35.6 °F 76% 29.86 in 5.0 mi WNW 10.4 mph - N/A   Haze
11:15 AM 42.8 °F 37.0 °F 35.6 °F 76% 29.86 in 5.0 mi WNW 10.4 mph - N/A   Haze
11:35 AM 44.6 °F 42.2 °F 35.6 °F 71% 29.85 in 5.0 mi WNW 4.6 mph - N/A   Haze
11:55 AM 44.6 °F 40.2 °F 35.6 °F 71% 29.85 in 5.0 mi WNW 8.1 mph - N/A   Haze
12:15 PM 44.6 °F 41.4 °F 35.6 °F 71% 29.85 in 5.0 mi West 5.8 mph - N/A   Haze
12:35 PM 46.4 °F 41.9 °F 35.6 °F 66% 29.85 in 5.0 mi West 9.2 mph - N/A   Haze
12:55 PM 46.4 °F 42.4 °F 35.6 °F 66% 29.85 in 5.0 mi WNW 8.1 mph - N/A   Haze
1:15 PM 50.0 °F - 35.6 °F 58% 29.84 in 5.0 mi West 12.7 mph - N/A   Haze
1:35 PM 50.0 °F - 35.6 °F 58% 29.83 in 7.0 mi West 8.1 mph - N/A   Clear
1:55 PM 51.8 °F - 35.6 °F 54% 29.82 in 10.0 mi WSW 4.6 mph - N/A   Clear
2:15 PM 51.8 °F - 35.6 °F 54% 29.80 in 10.0 mi West 4.6 mph - N/A   Clear
2:35 PM 51.8 °F - 35.6 °F 54% 29.81 in 10.0 mi West 8.1 mph - N/A   Clear
2:55 PM 51.8 °F - 35.6 °F 54% 29.80 in 10.0 mi West 4.6 mph - N/A   Clear
3:15 PM 51.8 °F - 35.6 °F 54% 29.80 in 10.0 mi WSW 5.8 mph - N/A   Clear
3:35 PM 51.8 °F - 35.6 °F 54% 29.80 in 10.0 mi WSW 3.5 mph - N/A   Clear
3:55 PM 51.8 °F - 35.6 °F 54% 29.80 in 10.0 mi SW 5.8 mph - N/A   Clear
6:35 PM 41.0 °F - 33.8 °F 76% 29.83 in 10.0 mi Calm Calm - N/A   Clear
6:55 PM 39.2 °F - 33.8 °F 81% 29.83 in 10.0 mi Calm Calm - N/A   Clear
7:15 PM 37.4 °F - 33.8 °F 87% 29.84 in 10.0 mi Calm Calm - N/A   Clear
7:35 PM 37.4 °F - 33.8 °F 87% 29.84 in 10.0 mi Calm Calm - N/A   Clear
7:55 PM 35.6 °F - 33.8 °F 93% 29.84 in 10.0 mi Calm Calm - N/A   Clear
8:15 PM 35.6 °F - 33.8 °F 93% 29.84 in 10.0 mi Calm Calm - N/A   Clear
8:35 PM 35.6 °F - 33.8 °F 93% 29.84 in 10.0 mi Calm Calm - N/A   Clear
8:55 PM 35.6 °F 32.8 °F 33.8 °F 93% 29.85 in 10.0 mi NE 3.5 mph - N/A   Clear
9:15 PM 35.6 °F - 33.8 °F 93% 29.85 in 10.0 mi Calm Calm - N/A   Clear
9:35 PM 35.6 °F 32.8 °F 32.0 °F 87% 29.84 in 10.0 mi NE 3.5 mph - N/A   Clear
9:55 PM 35.6 °F 32.8 °F 32.0 °F 87% 29.85 in 10.0 mi NE 3.5 mph - N/A   Clear
10:15 PM 35.6 °F 31.7 °F 32.0 °F 87% 29.85 in 10.0 mi NE 4.6 mph - N/A   Clear
10:55 PM 35.6 °F 31.7 °F 32.0 °F 87% 29.84 in 10.0 mi ENE 4.6 mph - N/A   Clear
11:15 PM 35.6 °F 31.7 °F 32.0 °F 87% 29.84 in 10.0 mi NE 4.6 mph - N/A   Clear
11:55 PM 35.6 °F 31.7 °F 32.0 °F 87% 29.84 in 10.0 mi NE 4.6 mph - N/A   Clear